This demonstration page uses our WeatherBlox Daily Observations layout. Learn more.

Left ArrowRight Arrow

Hourly Observations for May 19, 2022

Temp ( °F °C ) Dew Point ( °F °C ) Humidity (%) Winds ( mph kmh ) Pressure ( in mb ) Visibility ( mi km ) Precip ( " mm )
12:15 am 00:15 Clear 71 21.5 53 11.8 54 54 SSW 15 24 29.68 1005 10 16 0.00 0.00
12:35 am 00:35 Clear 70 21.2 53 11.8 55 55 SSW 16 26 29.67 1005 10 16 0.00 0.00
12:55 am 00:55 Clear 69 20.7 54 12 58 58 S 13 20 29.67 1005 10 16 0.00 0.00
1:15 am 01:15 Clear 68 20.2 54 12.2 60 60 S 12 19 29.66 1004 10 16 0.00 0.00
1:35 am 01:35 Clear 68 20.1 54 12.1 60 60 SSW 12 19 29.65 1004 10 16 0.00 0.00
1:55 am 01:55 Clear 68 20 54 12.2 61 61 SSW 12 19 29.64 1004 10 16 0.00 0.00
2:15 am 02:15 Clear 66 19 54 12.3 65 65 SSW 8 13 29.65 1004 10 16 0.00 0.00
2:35 am 02:35 Clear 68 20 55 12.8 63 63 SSW 9 15 29.62 1003 10 16 0.00 0.00
2:55 am 02:55 Clear 67 19.6 55 12.7 65 65 SW 10 17 29.62 1003 10 16 0.00 0.00
3:15 am 03:15 Clear 67 19.2 54 12 63 63 WSW 9 15 29.60 1002 10 16 0.00 0.00
3:35 am 03:35 Clear 66 18.8 51 10.8 60 60 WSW 9 15 29.59 1002 10 16 0.00 0.00
3:55 am 03:55 Clear 65 18.3 50 10.2 59 59 W 10 17 29.59 1002 10 16 0.00 0.00
4:15 am 04:15 Clear 65 18.5 49 9.5 56 56 W 12 19 29.60 1002 10 16 0.00 0.00
4:35 am 04:35 Clear 65 18.1 48 9 56 56 WSW 9 15 29.59 1002 10 16 0.00 0.00
4:55 am 04:55 Clear 65 18.4 47 8.6 53 53 WSW 10 17 29.59 1002 10 16 0.00 0.00
5:15 am 05:15 Clear 64 17.9 48 8.7 55 55 WSW 9 15 29.57 1001 10 16 0.00 0.00
5:35 am 05:35 Clear 63 17 48 9.1 60 60 W 9 15 29.58 1002 10 16 0.00 0.00
5:55 am 05:55 Clear 62 16.4 48 8.9 61 61 SSW 8 13 29.58 1002 10 16 0.00 0.00
6:15 am 06:15 Clear 61 15.9 48 8.9 63 63 SSW 7 11 29.58 1002 10 16 0.00 0.00
6:35 am 06:35 Sunny 62 16.4 49 9.2 63 63 SSW 10 17 29.57 1001 10 16 0.00 0.00
6:55 am 06:55 Sunny 62 16.9 49 9.4 61 61 SW 7 11 29.56 1001 10 16 0.00 0.00
7:15 am 07:15 Sunny 63 17.3 50 9.9 62 62 SW 6 9 29.55 1001 10 16 0.00 0.00
7:35 am 07:35 Sunny 63 17.1 50 10.1 64 64 SW 8 13 29.55 1001 10 16 0.00 0.00
7:55 am 07:55 Sunny 64 17.8 50 10.2 61 61 WSW 9 15 29.54 1000 10 16 0.00 0.00
8:15 am 08:15 Sunny 65 18.5 51 10.8 61 61 WSW 12 19 29.54 1000 10 16 0.00 0.00
8:35 am 08:35 Sunny 67 19.5 52 11.2 59 59 W 9 15 29.52 1000 10 16 0.00 0.00
8:55 am 08:55 Sunny 69 20.5 53 11.7 57 57 WSW 7 11 29.50 999 10 16 0.00 0.00
9:15 am 09:15 Sunny 69 20.7 53 11.6 56 56 SW 14 22 29.48 998 10 16 0.00 0.00
9:35 am 09:35 Sunny 71 21.6 54 12 55 55 SW 15 24 29.46 998 10 16 0.00 0.00
9:55 am 09:55 Sunny 73 22.7 54 12.3 52 52 SW 15 24 29.45 997 10 16 0.00 0.00
10:15 am 10:15 Sunny 74 23.5 54 12.2 49 49 SW 17 28 29.43 997 10 16 0.00 0.00
10:35 am 10:35 Sunny 76 24.3 54 12.1 47 47 SW 16 26 29.41 996 10 16 0.00 0.00
10:55 am 10:55 Sunny 77 25.2 54 12.2 44 44 SW 16 26 29.39 995 10 16 0.00 0.00
11:15 am 11:15 Sunny 80 26.6 55 12.5 42 42 SW 16 26 29.37 995 10 16 0.00 0.00
11:35 am 11:35 Sunny 80 26.6 54 12 40 40 SW 14 22 29.36 994 10 16 0.00 0.00
11:55 am 11:55 Sunny 82 27.6 55 13 41 41 SSW 16 26 29.34 994 10 16 0.00 0.00
12:15 pm 12:15 Sunny 83 28.6 54 12.2 36 36 SSW 13 20 29.33 993 10 16 0.00 0.00
12:35 pm 12:35 Sunny 85 29.5 54 12.4 35 35 SW 14 22 29.32 993 10 16 0.00 0.00
12:55 pm 12:55 Sunny 86 30.2 54 12 33 33 SW 10 17 29.30 992 10 16 0.00 0.00
1:15 pm 13:15 Sunny 89 31.5 51 10.8 28 28 SW 15 24 29.27 991 10 16 0.00 0.00
1:35 pm 13:35 Sunny 89 31.6 49 9.3 25 25 W 17 28 29.26 991 10 16 0.00 0.00
1:55 pm 13:55 Sunny 89 31.8 41 5.1 19 19 W 14 22 29.25 990 10 16 0.00 0.00
2:15 pm 14:15 Sunny 91 32.6 39 4.1 17 17 W 20 31 29.22 990 10 16 0.00 0.00
2:35 pm 14:35 Sunny 90 32.3 38 3.4 16 16 W 16 26 29.21 989 10 16 0.00 0.00
2:55 pm 14:55 Sunny 89 31.6 40 4.3 18 18 W 20 31 29.22 990 10 16 0.00 0.00
3:15 pm 15:15 Sunny 88 31.1 42 5.7 20 20 WNW 15 24 29.21 989 10 16 0.00 0.00
3:35 pm 15:35 Sunny 87 30.3 41 5 20 20 WNW 12 19 29.21 989 10 16 0.00 0.00
3:55 pm 15:55 Sunny 86 30 41 4.8 20 20 WNW 12 19 29.20 989 10 16 0.00 0.00
4:15 pm 16:15 Sunny 84 29.1 44 6.4 24 24 NW 9 15 29.20 989 10 16 0.00 0.00
4:35 pm 16:35 Sunny 84 28.9 44 6.9 25 25 NNW 7 11 29.18 988 10 16 0.00 0.00
4:55 pm 16:55 Sunny 84 28.9 46 7.5 26 26 NNW 6 9 29.18 988 10 16 0.00 0.00
5:15 pm 17:15 Sunny 85 29.4 51 10.6 31 31 NW 6 9 29.17 988 10 16 0.00 0.00
5:35 pm 17:35 Sunny 86 30 44 6.7 23 23 Calm 29.15 987 10 16 0.00 0.00
5:55 pm 17:55 Sunny 87 30.6 44 6.7 22 22 Calm 29.15 987 10 16 0.00 0.00
6:15 pm 18:15 Sunny 84 28.8 64 17.9 52 52 Calm 29.15 987 10 16 0.00 0.00
6:35 pm 18:35 Sunny 85 29.7 55 12.7 35 35 Calm 29.14 987 10 16 0.00 0.00
6:55 pm 18:55 Sunny 83 28.3 59 15.1 45 45 Calm 29.16 987 10 16 0.00 0.00
7:15 pm 19:15 Sunny 83 28.3 51 10.7 33 33 ENE 5 7 29.16 987 10 16 0.00 0.00
7:35 pm 19:35 Sunny 78 25.6 53 11.6 42 42 NNE 23 37 29.19 988 7 11 0.00 0.00
7:55 pm 19:55 Hazy 72 22.4 49 9.6 44 44 N 29 46 29.23 990 3 5 0.00 0.00
8:15 pm 20:15 Sunny 69 20.6 49 9.2 48 48 NNE 29 46 29.25 990 7 11 0.00 0.00
8:35 pm 20:35 Sunny 65 18.4 47 8.3 52 52 N 29 46 29.31 992 7 11 0.00 0.00
8:55 pm 20:55 Clear 62 16.4 44 6.8 53 53 N 18 30 29.35 994 7 11 0.00 0.00
9:15 pm 21:15 Clear 58 14.7 42 5.7 55 55 N 26 43 29.38 995 10 16 0.00 0.00
9:35 pm 21:35 Clear 57 13.8 41 5 56 56 N 25 41 29.41 996 10 16 0.00 0.00
9:55 pm 21:55 Clear 56 13.1 40 4.3 55 55 N 24 39 29.44 997 7 11 0.00 0.00
10:15 pm 22:15 Hazy 55 12.8 39 3.8 55 55 N 33 54 29.46 997 5 8 0.00 0.00
10:35 pm 22:35 Clear 54 12.3 38 3.4 55 55 N 21 33 29.49 999 10 16 0.00 0.00
10:55 pm 22:55 Hazy 53 11.9 36 2.2 52 52 N 31 50 29.50 999 5 8 0.00 0.00
11:15 pm 23:15 Clear 52 11.3 36 2 53 53 N 28 44 29.51 999 10 16 0.00 0.00
11:35 pm 23:35 Clear 52 11 36 2.2 55 55 NNE 23 37 29.53 1000 10 16 0.00 0.00
11:55 pm 23:55 Clear 52 11 36 2.4 56 56 N 23 37 29.54 1000 10 16 0.00 0.00

Powered by AerisWeather